Location: The Saddle
(36.8333°N, 80.3417°W)
Time: 05:30:48
(UTC-05:00)

S-56A Canister/Altair - All Passes

Search period start: 19 January 2022 00:00
Search period end: 29 January 2022 00:00
Orbit: 633 x 2499 km, 38.9° (Epoch: 18 January)

Date Brightness Start Highest point End Pass type
(mag) Time Alt. Az. Time Alt. Az. Time Alt. Az.
19 Jan - 08:35:03 10° SSW 08:39:25 32° SE 08:45:10 10° E daylight
19 Jan - 10:37:08 10° WSW 10:42:55 89° N 10:51:45 10° ENE daylight
19 Jan - 12:40:35 10° W 12:47:54 81° N 12:59:19 10° E daylight
19 Jan - 14:44:16 10° WNW 14:53:22 68° SSW 15:06:44 10° SE daylight
19 Jan - 16:49:21 10° W 16:58:52 32° SW 17:10:47 10° SSE daylight
20 Jan - 08:03:05 10° SSW 08:07:01 25° SE 08:11:51 10° E daylight
20 Jan - 10:04:49 10° WSW 10:10:14 85° SSE 10:18:19 10° ENE daylight
20 Jan - 12:08:10 10° W 12:14:57 79° N 12:25:34 10° E daylight
20 Jan - 14:11:44 10° WNW 14:20:15 72° SSW 14:33:04 10° ESE daylight
20 Jan - 16:16:23 10° W 16:25:39 35° SW 16:37:42 10° SSE daylight
21 Jan - 07:31:14 10° S 07:34:37 20° SE 07:38:32 10° E daylight
21 Jan - 09:32:31 10° WSW 09:37:37 78° SSE 09:44:59 10° ENE daylight
21 Jan - 11:35:46 10° W 11:42:05 77° N 11:51:53 10° E daylight
21 Jan - 13:39:14 10° WNW 13:47:11 76° SSW 13:59:23 10° ESE daylight
21 Jan - 15:43:33 10° W 15:52:29 38° SW 16:04:30 10° SSE daylight
21 Jan - 17:54:09 10° WSW 17:57:37 11° SW 18:01:16 10° SSW visible
22 Jan - 06:59:33 10° S 07:02:13 15° SE 07:05:08 10° ESE visible
22 Jan - 09:00:14 10° WSW 09:05:03 70° SSE 09:11:45 10° ENE daylight
22 Jan - 11:03:25 10° W 11:09:17 76° N 11:18:18 10° E daylight
22 Jan - 13:06:47 10° WNW 13:14:12 80° SSW 13:25:43 10° ESE daylight
22 Jan - 15:10:49 10° W 15:19:21 40° SSW 15:31:14 10° SSE daylight
22 Jan - 17:19:31 10° WSW 17:24:30 13° SW 17:30:01 10° SSW daylight
23 Jan - 06:28:15 10° SSE 06:29:48 12° SE 06:31:26 10° ESE visible
23 Jan - 08:27:58 10° SW 08:32:33 61° SSE 08:38:37 10° ENE daylight
23 Jan - 10:31:03 10° W 10:36:33 75° N 10:44:47 10° E daylight
23 Jan - 12:34:22 10° WNW 12:41:17 85° SSW 12:52:03 10° ESE daylight
23 Jan - 14:38:11 10° W 14:46:17 43° SSW 14:57:53 10° SE daylight
23 Jan - 16:45:38 10° WSW 16:51:24 15° SW 16:58:00 10° SSW daylight
24 Jan - 07:55:42 10° SW 08:00:05 51° SSE 08:05:35 10° ENE daylight
24 Jan - 09:58:42 10° W 10:03:52 76° N 10:11:24 10° E daylight
24 Jan - 12:02:00 10° WNW 12:08:25 89° SSW 12:18:25 10° ESE daylight
24 Jan - 14:05:36 10° W 14:13:16 46° SSW 14:24:30 10° SE daylight
24 Jan - 16:12:09 10° WSW 16:18:18 17° SW 16:25:38 10° S daylight
25 Jan - 07:23:26 10° SW 07:27:39 43° SSE 07:32:37 10° E daylight
25 Jan - 09:26:21 10° W 09:31:14 77° N 09:38:07 10° E daylight
25 Jan - 11:29:39 10° WNW 11:35:38 87° N 11:44:52 10° ESE daylight
25 Jan - 13:33:06 10° W 13:40:18 50° SSW 13:51:06 10° SE daylight
25 Jan - 15:38:56 10° WSW 15:45:16 19° SW 15:53:03 10° S daylight
26 Jan - 06:51:12 10° SW 06:55:14 35° SSE 06:59:43 10° E visible
26 Jan - 08:53:59 10° W 08:58:40 80° N 09:04:57 10° ENE daylight
26 Jan - 10:57:19 10° WNW 11:02:55 83° NNE 11:11:21 10° E daylight
26 Jan - 13:00:38 10° W 13:07:24 53° SSW 13:17:39 10° SE daylight
26 Jan - 15:05:55 10° W 15:12:15 21° SW 15:20:17 10° S daylight
27 Jan - 06:18:57 10° SSW 06:22:49 29° SSE 06:26:53 10° E visible
27 Jan - 08:21:35 10° W 08:26:07 84° NNW 08:31:55 10° ENE daylight
27 Jan - 10:24:58 10° WNW 10:30:14 79° N 10:37:57 10° E daylight
27 Jan - 12:28:14 10° W 12:34:35 57° SSW 12:44:15 10° SE daylight
27 Jan - 14:33:02 10° W 14:39:17 23° SW 14:47:25 10° S daylight
28 Jan - 05:46:42 10° SSW 05:50:24 24° SSE 05:54:05 10° E visible
28 Jan - 07:49:11 10° WSW 07:53:37 89° SSW 07:58:59 10° ENE daylight
28 Jan - 09:52:38 10° W 09:57:36 75° N 10:04:38 10° E daylight
28 Jan - 11:55:50 10° WNW 12:01:49 61° SSW 12:10:51 10° SE daylight
28 Jan - 14:00:17 10° W 14:06:22 24° SSW 14:14:27 10° SSE daylight
